Location: Mountain Grove
(34.0887°N, 86.6172°W)
Time: 20:43:33
(UTC+00:00)

Cosmos 2278 - Pass Details

Date: 14 July 2020
Orbit: 838 x 854 km, 71.1° (Epoch: 08 August)

Event Time Altitude Azimuth Distance (km) Brightness Sun altitude
Rises 08:51:28 0° 336° (NNW) 3,427 7.2 -19.9°
Reaches altitude 10° 08:53:56 10° 335° (NNW) 2,488 6.4 -19.6°
Maximum altitude 08:59:37 71° 252° (WSW) 899 3.6 -18.7°
Drops below altitude 10° 09:05:16 10° 169° (S) 2,470 5.8 -17.9°
Enters shadow 09:06:02 - 168° (SSE) 2,760 6.1 -17.8°
